Regional Weather Roundup
Issued by NWS Memphis, TN

Home | Current Version | Previous Version | Text Only | Print | Product List | Glossary On
Versions: 1 2 3 4 5 6 7 8 9 10 11 12 13 14 15 16 17 18 19 20 21 22 23 24 25 26 27 28 29 30 31 32 33 34 35 36 37 38 39 40 41 42 43 44 45 46 47 48 49 50
388
ASUS44 KMEG 190100
RWRMEG
MEMPHIS CWA HOURLY WEATHER ROUNDUP
NATIONAL WEATHER SERVICE MEMPHIS TN
700 PM CST WED JAN 18 2017

...WEST TENNESSEE...

CITY           SKY/WX    TMP DP  RH WIND       PRES   REMARKS
MEMPHIS INTL   CLOUDY    55  45  68 E3        30.07S
NWS MEMPHIS      N/A     53 N/A N/A MISG        N/A
JACKSON        CLOUDY    51  45  79 VRB5      30.09F
DYERSBURG      CLOUDY    48  43  81 N6        30.11R
UNION CITY     CLEAR     45  45 100 CALM      30.11R
PARIS          CLEAR     43  39  87 CALM      30.10F


...EASTERN ARKANSAS...

CITY           SKY/WX    TMP DP  RH WIND       PRES   REMARKS
JONESBORO      CLOUDY    46  42  86 NE8       30.09F
WEST MEMPHIS   LGT RAIN  50  49  96 CALM      30.08R FOG
BATESVILLE     CLOUDY    45  41  87 CALM      30.12R
NEWPORT        CLOUDY    47  44  90 MISG      30.11R
WALNUT RIDGE   CLOUDY    45  39  81 NE8       30.10S
BLYTHEVILLE    CLOUDY    49  45  86 N5        30.12R
SEARCY         CLOUDY    47  45  93 E13       30.06F
STUTTGART      CLOUDY    48  43  81 NE9       30.05R
PINE BLUFF     LGT RAIN  49  48  97 NW14      30.05R
MONTICELLO     RAIN      51  50  96 E7        30.04F


...NORTH MISSISSIPPI...

CITY           SKY/WX    TMP DP  RH WIND       PRES   REMARKS
TUPELO         CLOUDY    57  51  80 N3        30.09F
OXFORD         CLOUDY    54  48  82 E5        30.09S
OLIVE BRANCH   CLOUDY   N/A N/A N/A E7        30.06F
TUNICA         RAIN      50  46  87 NW3       30.09F
CLARKSDALE     CLOUDY    52  52 100 N7        30.07S FOG
GREENWOOD      CLOUDY    60  55  83 E7        30.05S
STARKVILLE     CLOUDY    61  55  82 CALM      30.09F
GOLDEN TRIANGL MOCLDY    63  54  72 SE5       30.04F


...SOUTHEAST MISSOURI...

CITY           SKY/WX    TMP DP  RH WIND       PRES   REMARKS
KENNETT        CLOUDY    46  45  93 N6        30.12R
WEST PLAINS    CLOUDY    42  39  89 E5        30.08F
POPLAR BLUFF   CLOUDY    44  41  89 NE6       30.11F
CAPE GIRARDEAU MOCLDY    42  39  89 W5        30.15R


...NORTHWEST ALABAMA...

CITY           SKY/WX    TMP DP  RH WIND       PRES   REMARKS
MUSCLE SHOALS  CLOUDY    55  48  77 E3        30.12F


...MIDDLE TENNESSEE...

CITY           SKY/WX    TMP DP  RH WIND       PRES   REMARKS
NASHVILLE      CLOUDY    47  40  76 CALM      30.14S
CLARKSVILLE    CLOUDY    45  39  79 SE5       30.13S
COLUMBIA       CLEAR     46  46 100 CALM      30.13R


...WESTERN KENTUCKY...

CITY           SKY/WX    TMP DP  RH WIND       PRES   REMARKS
PADUCAH        CLOUDY    44  39  82 CALM      30.12S
FORT CAMPBELL  CLOUDY    46  40  82 CALM      30.12R


...CENTRAL ARKANSAS...

CITY           SKY/WX    TMP DP  RH WIND       PRES   REMARKS
LITTLE ROCK    CLOUDY    46  46 100 NE8       30.04S


SKY/WX REPORTED AS FAIR MEANS FEW OR NO CLOUDS BELOW
12 THOUSAND FEET.





USA.gov is the U.S. government's official web portal to all federal, state and local government web resources and services.